Location: Aulnoy
(48.8410°N, 3.0967°E)
Time: 00:26:51
(UTC+00:00)

Envisat - Pass Details

Date: 29 February 2024
Orbit: 762 x 764 km, 98.3° (Epoch: 12 April)

Event Time Altitude Azimuth Distance (km) Brightness Sun altitude
Rises 04:17:41 0° 7° (N) 3,243 6.5 -22.6°
Reaches altitude 10° 04:20:10 10° 359° (N) 2,312 5.6 -22.2°
Enters shadow 04:24:11 33° 309° (NW) 1,261 3.8 -21.5°
